SCP
0 0 0 0 0 0 0 0 0 0 0 0 0 0 0 0 0 0 0 0 0 0 0 0 0 0 0 0 0 0 0 1 1 1 1 1 1 0 1 1 0 0 0
0 0 0 0 0 0 0 0 0 0 0 0 0 0 0 0 0 0 0 0 0 0 0 0 0 0 0 0 0 0 0 0 1 1 1 1 1 1 1 0 0 0 0
0 0 0 0 0 0 0 0 0 0 0 0 0 0 0 0 0 0 0 0 0 0 0 0 0 0 0 0 0 0 0 0 0 0 0 1 1 1 1 0 0 0 0
0 0 0 0 0 0 0 0 0 0 0 0 0 0 0 0 0 0 0 0 0 0 0 0 0 0 0 0 0 0 0 0 0 0 0 -0 0 1 1 1 0 0 0
0 0 0 0 0 0 0 0 0 0 0 0 0 0 0 0 0 0 0 0 0 0 0 0 0 0 0 0 0 0 0 0 0 0 0 0 0 1 1 1 1 1 0
0 0 0 0 0 0 0 0 0 0 0 0 0 0 0 0 0 0 0 0 0 0 0 0 0 0 0 0 0 0 0 0 0 0 0 0 0 0 -0 0 1 1 0
0 0 0 0 0 0 0 0 0 0 0 0 0 0 0 0 0 0 0 0 0 0 0 0 0 0 0 0 0 0 0 0 0 0 0 0 0 0 0 0 0 1 1
0 0 0 0 0 0 0 0 0 0 0 0 0 0 0 0 0 0 0 0 0 0 0 0 0 0 0 0 0 0 0 0 0 0 0 0 0 0 0 0 0 0 0
0 0 0 0 0 0 0 0 0 0 0 0 0 0 0 0 0 0 0 0 0 0 0 0 0 0 0 0 0 0 0 0 0 0 0 0 0 0 0 0 0 0 -0
0 0 0 0 0 0 0 0 0 0 0 0 0 0 0 0 0 0 0 0 0 0 0 0 0 0 0 0 0 0 0 0 0 0 0 0 0 0 0 0 0 0 0
0 0 0 0 0 0 0 0 0 0 0 0 0 0 0 0 0 0 0 0 0 0 0 0 0 0 0 0 0 0 0 0 0 0 0 0 0 0 0 0 0 0 0
0 0 0 0 0 0 0 0 0 0 0 0 0 0 0 0 0 0 0 0 0 0 0 0 0 0 0 0 0 0 0 0 0 0 0 0 0 0 0 0 0 0 0
0 0 0 0 0 0 0 0 0 0 0 0 0 0 0 0 0 0 0 0 0 0 0 0 0 0 0 0 0 0 0 0 0 0 0 0 0 0 0 0 0 0 0
0 0 0 0 0 0 0 0 0 0 0 0 0 0 0 0 0 0 0 0 0 0 0 0 0 0 0 0 0 0 0 0 0 0 0 0 0 0 0 0 0 0 0
0 0 0 0 0 0 -0 -0 0 0 0 0 0 0 0 0 0 0 0 0 0 0 0 0 0 0 0 0 0 0 0 0 0 0 0 0 0 0 0 0 0 0 0
0 0 0 0 -0 -0 0 0 0 0 0 0 0 0 0 0 0 0 0 0 0 0 0 0 0 0 0 0 0 0 0 0 0 0 0 0 0 0 0 0 0 0 0
0 0 -0 -0 -0 -0 -0 0 0 0 0 0 0 0 0 0 0 0 0 0 0 0 0 0 0 0 0 0 0 0 0 0 0 0 0 0 0 0 0 0 0 0 0
0 0 -0 -0 -0 -0 -0 -0 -0 0 0 0 0 0 0 0 0 0 0 0 0 0 0 0 0 0 0 0 0 0 0 0 0 0 0 0 0 0 0 0 0 0 0
0 0 -0 -0 0 -0 -0 -0 0 0 0 0 0 0 0 0 0 0 0 0 0 0 0 0 0 0 0 0 0 0 0 0 0 -0 0 0 0 0 0 0 0 0 0
0 0 0 0 0 0 -0 0 0 0 0 0 0 0 0 0 0 0 0 0 0 0 0 0 0 0 0 0 0 0 0 0 0 0 -0 0 -0 0 0 0 0 0 0
0 0 0 0 0 0 0 0 0 0 0 0 0 0 0 0 0 0 0 0 0 0 0 0 0 0 0 0 0 0 0 0 0 0 -0 0 0 0 0 0 0 0 0
0 0 0 0 0 0 0 0 0 0 0 0 0 0 0 0 0 0 0 0 0 0 0 0 0 0 0 0 0 0 0 0 0 0 0 0 -0 -0 0 -0 -0 -0 0
0 0 0 0 0 0 0 0 0 0 0 0 0 0 0 0 0 0 0 0 0 0 0 0 0 0 0 0 0 0 0 0 0 0 0 0 -0 -0 -0 -0 -0 -0 -0
0 0 0 0 0 0 0 0 0 0 0 0 0 0 0 0 0 0 0 0 0 0 0 0 0 0 0 0 0 0 0 0 0 0 0 -0 0 -0 -0 -0 -0 -0 -0
0 0 0 0 0 0 0 0 0 0 0 0 0 0 0 0 0 0 0 0 0 0 0 0 0 0 0 0 0 0 0 0 0 0 0 0 0 -0 -0 -0 -0 -0 -0
0 0 0 0 0 0 0 0 0 0 0 0 0 0 0 0 0 0 0 0 0 0 0 0 0 0 0 0 0 0 0 0 0 0 0 0 0 -0 -0 -0 -0 -0 -0
Wind_Speed_500mb
22 25 29 35 39 41 44 45 46 46 48 49 52 55 57 59 62 66 69 69 70 73 76 78 77 75 77 73 66 70 77 85 88 93 91 87 85 85 87 83 82 79 76
25 29 34 37 39 41 42 44 46 47 48 51 51 54 55 57 59 60 62 64 64 67 71 77 80 80 82 75 79 71 84 88 90 99 102 96 91 89 88 87 88 88 82
29 34 36 36 37 40 42 43 45 46 48 52 54 55 58 59 59 60 60 62 61 59 61 65 74 80 84 87 91 79 90 96 93 83 107 97 99 94 92 90 94 88 89
32 35 35 36 37 40 42 42 46 48 52 57 60 60 60 61 60 58 57 57 58 59 58 58 62 69 79 87 91 96 99 92 102 95 88 105 105 101 100 97 96 96 99
32 34 35 36 36 37 40 43 46 53 57 61 66 66 64 62 57 53 49 46 48 50 53 55 56 62 68 76 85 93 100 104 105 101 86 79 94 117 106 107 101 104 103
31 33 33 33 33 36 41 45 48 52 59 67 68 66 58 52 38 32 29 31 32 35 37 39 43 49 56 64 72 81 90 98 104 100 92 89 69 96 126 132 115 123 106
31 31 30 31 34 38 43 48 53 56 57 63 64 63 45 26 27 16 15 25 28 27 27 31 35 42 47 48 52 59 71 61 59 81 82 88 78 86 100 95 91 138 116
28 27 28 32 36 40 44 48 53 55 54 49 49 44 25 26 7 36 12 25 27 31 34 39 44 46 50 54 54 54 55 55 62 54 67 67 66 65 97 99 88 96 105
25 26 29 34 37 41 44 47 50 48 43 39 36 24 16 13 53 3 40 16 35 35 40 49 54 59 63 67 68 65 61 60 58 59 58 56 62 67 75 77 68 67 56
24 26 30 34 38 42 44 45 42 37 37 36 30 18 14 22 15 26 29 51 40 62 61 56 53 49 49 48 50 59 63 64 60 58 61 63 60 63 53 61 81 72 56
23 26 30 34 37 39 39 35 31 29 26 26 25 23 25 24 21 22 47 42 69 68 66 67 61 56 47 48 49 48 46 51 52 53 56 55 58 52 51 53 59 66 64
22 26 29 31 35 34 30 27 25 22 22 23 25 24 23 21 26 26 48 69 72 67 75 55 60 58 51 50 46 44 51 58 60 59 57 58 52 48 48 47 48 51 55
20 22 24 29 30 28 25 22 20 19 20 20 20 20 20 20 25 33 42 58 57 86 51 64 63 57 57 49 51 59 68 66 59 55 59 63 59 50 43 49 59 58 56
17 17 21 27 29 27 23 21 21 21 20 20 19 19 21 21 28 34 37 46 65 51 62 67 60 62 49 54 66 72 79 68 65 62 56 53 58 56 46 47 47 55 59
13 12 18 26 28 26 24 24 21 20 18 18 19 17 20 22 26 30 35 40 44 48 72 59 66 62 69 69 64 60 65 62 61 58 55 50 44 49 51 47 47 46 42
11 7 13 19 22 25 27 27 25 23 22 20 21 21 19 19 23 28 34 38 41 46 49 72 76 68 66 64 61 52 54 57 49 45 41 36 37 41 44 49 49 53 58
11 5 6 12 16 22 27 27 25 23 23 22 21 20 16 16 22 27 32 34 38 40 52 72 67 66 61 61 50 47 53 52 50 39 27 32 30 34 33 31 39 50 54
13 9 2 10 15 18 22 24 23 25 26 25 23 23 23 23 26 27 30 36 40 42 51 66 64 63 56 53 51 49 51 54 58 34 28 31 27 28 32 36 40 46 51
16 12 3 6 12 12 14 17 19 20 22 24 27 27 26 28 28 30 31 36 39 43 44 51 60 54 52 46 51 49 48 59 64 36 26 25 25 29 36 39 41 42 44
18 15 7 6 11 8 10 14 16 18 22 24 27 29 29 30 31 33 32 32 37 41 42 45 47 50 50 50 54 61 60 55 58 45 32 25 22 25 28 28 26 30 37
21 18 11 8 10 9 7 9 13 14 17 20 23 25 28 30 30 32 32 31 35 39 39 41 44 49 49 56 59 58 55 58 58 45 33 28 26 26 30 25 22 16 20
25 20 17 12 11 11 8 9 11 13 16 18 21 24 28 31 31 29 26 28 29 33 34 36 40 44 48 51 49 51 50 50 50 46 34 31 31 31 38 42 41 27 15
29 24 20 17 11 11 10 9 10 10 13 18 21 23 25 28 29 29 28 28 24 22 29 34 40 40 44 42 45 43 36 34 38 37 26 30 29 37 37 36 42 38 31
33 29 24 21 16 13 12 11 10 11 12 15 20 24 25 28 30 31 29 29 28 26 25 28 31 33 36 37 33 31 29 25 27 28 18 23 33 43 41 44 47 43 36
40 33 28 24 22 19 17 15 11 11 11 14 18 21 24 26 29 30 29 29 27 24 26 27 29 32 31 34 25 20 17 19 20 21 15 17 32 41 43 51 54 68 71
42 40 34 28 26 24 22 20 15 13 12 14 18 20 21 24 25 27 28 29 26 24 21 23 25 27 27 27 26 16 12 11 10 7 4 12 22 13 24 38 39 45 57
Wind_Direction_500mb
275 285 291 295 298 299 299 298 297 295 295 293 291 290 290 289 287 286 284 280 276 274 273 274 273 270 266 264 266 262 263 260 256 253 252 252 250 250 251 251 249 247 247
280 290 298 303 307 308 306 305 304 302 301 300 300 300 298 296 294 293 291 287 283 277 272 270 269 268 268 268 262 265 258 269 254 256 251 250 252 250 251 253 253 248 244
289 299 304 309 311 310 308 307 306 309 311 308 308 308 306 304 301 297 294 293 290 284 278 273 269 267 267 268 267 271 265 262 261 275 250 251 249 250 250 251 254 256 242
297 304 309 312 312 312 312 315 316 316 315 312 310 309 307 304 304 302 299 293 289 286 282 276 273 270 268 266 266 265 264 267 270 272 271 257 248 251 251 250 250 252 249
302 307 310 312 314 316 317 317 317 317 318 316 315 314 313 311 308 305 301 296 293 290 287 282 275 271 270 268 268 267 266 267 266 272 269 271 262 256 251 249 248 247 248
303 307 310 313 316 317 316 317 319 321 323 319 317 315 320 315 313 311 313 314 310 305 299 292 287 281 276 273 270 269 267 266 267 267 267 263 281 256 255 249 247 245 244
303 307 311 314 316 316 319 321 324 323 321 320 324 326 336 332 328 337 330 324 317 319 316 301 293 289 287 287 285 283 280 280 280 271 272 268 275 265 271 268 284 237 243
299 304 309 312 315 319 322 323 322 324 325 330 334 338 336 337 328 322 318 320 310 306 300 295 296 295 291 290 288 287 286 290 284 289 279 276 268 266 265 257 274 266 264
297 303 309 314 318 320 323 323 324 323 327 330 336 344 340 327 332 264 317 350 316 309 313 305 300 297 293 290 288 286 284 283 285 285 280 285 273 274 266 268 271 279 269
294 303 310 316 321 325 325 324 321 324 327 326 328 327 306 299 330 319 308 327 332 334 336 331 328 324 320 315 309 294 287 283 280 279 280 281 284 274 274 275 263 268 253
292 304 315 323 326 326 324 322 325 326 323 318 317 323 323 319 316 291 307 315 326 331 332 329 330 331 327 325 321 317 311 296 290 287 283 281 279 283 279 271 266 265 267
296 310 322 327 331 330 329 335 335 331 328 325 333 334 322 314 308 303 301 313 318 327 326 334 335 331 327 327 315 312 306 305 299 293 288 284 281 280 276 277 265 264 264
297 315 326 336 339 338 339 335 335 332 332 336 336 333 327 331 315 304 304 311 314 323 329 330 331 333 335 318 311 306 308 307 299 296 289 282 275 278 278 273 266 267 265
295 316 337 351 351 348 345 347 344 343 347 343 340 333 325 320 315 317 316 317 318 313 323 324 329 330 332 319 314 308 310 312 303 295 294 295 280 270 275 268 264 262 262
291 318 357 5 359 356 360 359 356 348 344 330 323 319 318 317 312 313 318 318 318 315 321 323 325 329 326 327 327 325 323 320 309 302 291 294 283 275 270 265 259 264 272
273 310 15 9 8 7 14 11 6 1 357 349 332 315 304 305 310 312 313 313 312 310 299 314 321 333 333 330 334 336 336 335 325 310 297 291 284 280 276 264 260 259 259
252 265 15 352 360 18 19 17 15 16 17 10 357 348 332 314 316 315 316 321 321 320 306 318 326 329 336 337 343 342 344 348 342 317 300 301 286 283 288 281 267 260 255
240 241 302 330 340 12 21 17 18 22 27 14 8 1 348 334 330 327 331 326 322 320 312 312 324 334 339 344 337 342 348 355 358 330 308 306 302 307 300 302 297 274 266
232 235 216 307 320 350 2 11 16 20 27 20 15 10 360 351 345 335 327 321 321 316 315 311 316 331 338 344 340 343 351 1 5 353 328 322 329 310 309 301 299 279 270
228 235 204 268 296 325 348 359 4 24 27 21 13 3 353 347 340 331 323 325 323 319 317 314 319 328 337 341 341 342 343 358 5 8 359 349 339 329 320 312 310 289 268
224 235 223 242 278 295 334 353 349 10 17 16 11 4 1 359 353 342 334 337 330 324 320 317 319 327 335 339 339 342 343 346 357 358 3 9 15 12 10 16 18 335 296
222 228 236 235 261 281 306 328 346 356 6 8 4 1 2 2 0 355 339 325 324 323 323 318 317 319 324 327 336 338 337 345 350 353 15 17 12 23 29 27 20 13 358
223 223 231 234 232 265 283 299 319 339 355 358 357 358 1 359 358 2 357 345 334 325 325 321 314 315 317 326 329 336 337 339 345 350 358 32 41 45 42 43 43 33 33
224 227 227 235 236 236 255 271 289 311 339 349 352 353 357 359 358 3 3 359 351 346 348 340 334 329 321 320 327 332 336 336 343 350 355 54 65 68 66 68 71 65 61
225 229 231 232 239 243 248 250 264 286 313 332 341 346 350 355 358 1 5 6 3 356 347 345 340 341 345 342 333 331 321 324 337 348 359 102 91 83 77 79 84 90 88
225 228 231 234 236 245 252 259 261 270 293 315 324 330 341 347 352 357 3 7 7 4 356 346 347 350 352 350 346 336 328 308 323 339 44 150 128 79 62 73 87 89 94
Wind_Speed_850mb
22 25 29 35 39 41 44 45 46 46 48 49 52 55 57 59 62 66 69 69 70 73 76 78 77 75 77 73 66 70 77 85 88 93 91 87 85 85 87 83 82 79 76
25 29 34 37 39 41 42 44 46 47 48 51 51 54 55 57 59 60 62 64 64 67 71 77 80 80 82 75 79 71 84 88 90 99 102 96 91 89 88 87 88 88 82
29 34 36 36 37 40 42 43 45 46 48 52 54 55 58 59 59 60 60 62 61 59 61 65 74 80 84 87 91 79 90 96 93 83 107 97 99 94 92 90 94 88 89
32 35 35 36 37 40 42 42 46 48 52 57 60 60 60 61 60 58 57 57 58 59 58 58 62 69 79 87 91 96 99 92 102 95 88 105 105 101 100 97 96 96 99
32 34 35 36 36 37 40 43 46 53 57 61 66 66 64 62 57 53 49 46 48 50 53 55 56 62 68 76 85 93 100 104 105 101 86 79 94 117 106 107 101 104 103
31 33 33 33 33 36 41 45 48 52 59 67 68 66 58 52 38 32 29 31 32 35 37 39 43 49 56 64 72 81 90 98 104 100 92 89 69 96 126 132 115 123 106
31 31 30 31 34 38 43 48 53 56 57 63 64 63 45 26 27 16 15 25 28 27 27 31 35 42 47 48 52 59 71 61 59 81 82 88 78 86 100 95 91 138 116
28 27 28 32 36 40 44 48 53 55 54 49 49 44 25 26 7 36 12 25 27 31 34 39 44 46 50 54 54 54 55 55 62 54 67 67 66 65 97 99 88 96 105
25 26 29 34 37 41 44 47 50 48 43 39 36 24 16 13 53 3 40 16 35 35 40 49 54 59 63 67 68 65 61 60 58 59 58 56 62 67 75 77 68 67 56
24 26 30 34 38 42 44 45 42 37 37 36 30 18 14 22 15 26 29 51 40 62 61 56 53 49 49 48 50 59 63 64 60 58 61 63 60 63 53 61 81 72 56
23 26 30 34 37 39 39 35 31 29 26 26 25 23 25 24 21 22 47 42 69 68 66 67 61 56 47 48 49 48 46 51 52 53 56 55 58 52 51 53 59 66 64
22 26 29 31 35 34 30 27 25 22 22 23 25 24 23 21 26 26 48 69 72 67 75 55 60 58 51 50 46 44 51 58 60 59 57 58 52 48 48 47 48 51 55
20 22 24 29 30 28 25 22 20 19 20 20 20 20 20 20 25 33 42 58 57 86 51 64 63 57 57 49 51 59 68 66 59 55 59 63 59 50 43 49 59 58 56
17 17 21 27 29 27 23 21 21 21 20 20 19 19 21 21 28 34 37 46 65 51 62 67 60 62 49 54 66 72 79 68 65 62 56 53 58 56 46 47 47 55 59
13 12 18 26 28 26 24 24 21 20 18 18 19 17 20 22 26 30 35 40 44 48 72 59 66 62 69 69 64 60 65 62 61 58 55 50 44 49 51 47 47 46 42
11 7 13 19 22 25 27 27 25 23 22 20 21 21 19 19 23 28 34 38 41 46 49 72 76 68 66 64 61 52 54 57 49 45 41 36 37 41 44 49 49 53 58
11 5 6 12 16 22 27 27 25 23 23 22 21 20 16 16 22 27 32 34 38 40 52 72 67 66 61 61 50 47 53 52 50 39 27 32 30 34 33 31 39 50 54
13 9 2 10 15 18 22 24 23 25 26 25 23 23 23 23 26 27 30 36 40 42 51 66 64 63 56 53 51 49 51 54 58 34 28 31 27 28 32 36 40 46 51
16 12 3 6 12 12 14 17 19 20 22 24 27 27 26 28 28 30 31 36 39 43 44 51 60 54 52 46 51 49 48 59 64 36 26 25 25 29 36 39 41 42 44
18 15 7 6 11 8 10 14 16 18 22 24 27 29 29 30 31 33 32 32 37 41 42 45 47 50 50 50 54 61 60 55 58 45 32 25 22 25 28 28 26 30 37
21 18 11 8 10 9 7 9 13 14 17 20 23 25 28 30 30 32 32 31 35 39 39 41 44 49 49 56 59 58 55 58 58 45 33 28 26 26 30 25 22 16 20
25 20 17 12 11 11 8 9 11 13 16 18 21 24 28 31 31 29 26 28 29 33 34 36 40 44 48 51 49 51 50 50 50 46 34 31 31 31 38 42 41 27 15
29 24 20 17 11 11 10 9 10 10 13 18 21 23 25 28 29 29 28 28 24 22 29 34 40 40 44 42 45 43 36 34 38 37 26 30 29 37 37 36 42 38 31
33 29 24 21 16 13 12 11 10 11 12 15 20 24 25 28 30 31 29 29 28 26 25 28 31 33 36 37 33 31 29 25 27 28 18 23 33 43 41 44 47 43 36
40 33 28 24 22 19 17 15 11 11 11 14 18 21 24 26 29 30 29 29 27 24 26 27 29 32 31 34 25 20 17 19 20 21 15 17 32 41 43 51 54 68 71
42 40 34 28 26 24 22 20 15 13 12 14 18 20 21 24 25 27 28 29 26 24 21 23 25 27 27 27 26 16 12 11 10 7 4 12 22 13 24 38 39 45 57
Wind_Direction_850mb
275 285 291 295 298 299 299 298 297 295 295 293 291 290 290 289 287 286 284 280 276 274 273 274 273 270 266 264 266 262 263 260 256 253 252 252 250 250 251 251 249 247 247
280 290 298 303 307 308 306 305 304 302 301 300 300 300 298 296 294 293 291 287 283 277 272 270 269 268 268 268 262 265 258 269 254 256 251 250 252 250 251 253 253 248 244
289 299 304 309 311 310 308 307 306 309 311 308 308 308 306 304 301 297 294 293 290 284 278 273 269 267 267 268 267 271 265 262 261 275 250 251 249 250 250 251 254 256 242
297 304 309 312 312 312 312 315 316 316 315 312 310 309 307 304 304 302 299 293 289 286 282 276 273 270 268 266 266 265 264 267 270 272 271 257 248 251 251 250 250 252 249
302 307 310 312 314 316 317 317 317 317 318 316 315 314 313 311 308 305 301 296 293 290 287 282 275 271 270 268 268 267 266 267 266 272 269 271 262 256 251 249 248 247 248
303 307 310 313 316 317 316 317 319 321 323 319 317 315 320 315 313 311 313 314 310 305 299 292 287 281 276 273 270 269 267 266 267 267 267 263 281 256 255 249 247 245 244
303 307 311 314 316 316 319 321 324 323 321 320 324 326 336 332 328 337 330 324 317 319 316 301 293 289 287 287 285 283 280 280 280 271 272 268 275 265 271 268 284 237 243
299 304 309 312 315 319 322 323 322 324 325 330 334 338 336 337 328 322 318 320 310 306 300 295 296 295 291 290 288 287 286 290 284 289 279 276 268 266 265 257 274 266 264
297 303 309 314 318 320 323 323 324 323 327 330 336 344 340 327 332 264 317 350 316 309 313 305 300 297 293 290 288 286 284 283 285 285 280 285 273 274 266 268 271 279 269
294 303 310 316 321 325 325 324 321 324 327 326 328 327 306 299 330 319 308 327 332 334 336 331 328 324 320 315 309 294 287 283 280 279 280 281 284 274 274 275 263 268 253
292 304 315 323 326 326 324 322 325 326 323 318 317 323 323 319 316 291 307 315 326 331 332 329 330 331 327 325 321 317 311 296 290 287 283 281 279 283 279 271 266 265 267
296 310 322 327 331 330 329 335 335 331 328 325 333 334 322 314 308 303 301 313 318 327 326 334 335 331 327 327 315 312 306 305 299 293 288 284 281 280 276 277 265 264 264
297 315 326 336 339 338 339 335 335 332 332 336 336 333 327 331 315 304 304 311 314 323 329 330 331 333 335 318 311 306 308 307 299 296 289 282 275 278 278 273 266 267 265
295 316 337 351 351 348 345 347 344 343 347 343 340 333 325 320 315 317 316 317 318 313 323 324 329 330 332 319 314 308 310 312 303 295 294 295 280 270 275 268 264 262 262
291 318 357 5 359 356 360 359 356 348 344 330 323 319 318 317 312 313 318 318 318 315 321 323 325 329 326 327 327 325 323 320 309 302 291 294 283 275 270 265 259 264 272
273 310 15 9 8 7 14 11 6 1 357 349 332 315 304 305 310 312 313 313 312 310 299 314 321 333 333 330 334 336 336 335 325 310 297 291 284 280 276 264 260 259 259
252 265 15 352 360 18 19 17 15 16 17 10 357 348 332 314 316 315 316 321 321 320 306 318 326 329 336 337 343 342 344 348 342 317 300 301 286 283 288 281 267 260 255
240 241 302 330 340 12 21 17 18 22 27 14 8 1 348 334 330 327 331 326 322 320 312 312 324 334 339 344 337 342 348 355 358 330 308 306 302 307 300 302 297 274 266
232 235 216 307 320 350 2 11 16 20 27 20 15 10 360 351 345 335 327 321 321 316 315 311 316 331 338 344 340 343 351 1 5 353 328 322 329 310 309 301 299 279 270
228 235 204 268 296 325 348 359 4 24 27 21 13 3 353 347 340 331 323 325 323 319 317 314 319 328 337 341 341 342 343 358 5 8 359 349 339 329 320 312 310 289 268
224 235 223 242 278 295 334 353 349 10 17 16 11 4 1 359 353 342 334 337 330 324 320 317 319 327 335 339 339 342 343 346 357 358 3 9 15 12 10 16 18 335 296
222 228 236 235 261 281 306 328 346 356 6 8 4 1 2 2 0 355 339 325 324 323 323 318 317 319 324 327 336 338 337 345 350 353 15 17 12 23 29 27 20 13 358
223 223 231 234 232 265 283 299 319 339 355 358 357 358 1 359 358 2 357 345 334 325 325 321 314 315 317 326 329 336 337 339 345 350 358 32 41 45 42 43 43 33 33
224 227 227 235 236 236 255 271 289 311 339 349 352 353 357 359 358 3 3 359 351 346 348 340 334 329 321 320 327 332 336 336 343 350 355 54 65 68 66 68 71 65 61
225 229 231 232 239 243 248 250 264 286 313 332 341 346 350 355 358 1 5 6 3 356 347 345 340 341 345 342 333 331 321 324 337 348 359 102 91 83 77 79 84 90 88
225 228 231 234 236 245 252 259 261 270 293 315 324 330 341 347 352 357 3 7 7 4 356 346 347 350 352 350 346 336 328 308 323 339 44 150 128 79 62 73 87 89 94